Location: Leiter
(44.7178°N, 106.2687°W)
Time: 13:57:58
(UTC+00:00)

STARS - Visible Passes

Search period start: 02 July 2022 00:00
Search period end: 12 July 2022 00:00
Orbit: 622 x 636 km, 98.2° (Epoch: 01 July)

Date Brightness Start Highest point End Pass type
(mag) Time Alt. Az. Time Alt. Az. Time Alt. Az.
02 Jul ? 05:08:54 10° NE 05:12:45 30° E 05:13:34 28° ESE visible
02 Jul ? 06:45:13 10° N 06:48:57 28° WNW 06:50:55 20° WSW visible
03 Jul ? 05:28:42 10° NNE 05:32:57 48° E 05:33:51 41° SE visible
03 Jul ? 07:05:50 10° NNW 07:08:51 19° WNW 07:11:13 13° W visible
04 Jul ? 05:48:41 10° NNE 05:53:04 79° ESE 05:54:09 51° S visible
04 Jul ? 07:26:58 10° NW 07:28:42 12° WNW 07:30:27 10° W visible
05 Jul ? 04:34:26 10° ENE 04:36:27 13° E 04:37:05 13° E visible
05 Jul ? 06:08:48 10° N 06:13:09 64° WNW 06:14:26 42° SW visible
06 Jul ? 04:53:27 10° NE 04:56:44 21° E 04:57:22 20° ESE visible
06 Jul ? 06:29:04 10° N 06:33:09 40° WNW 06:34:43 29° WSW visible
07 Jul ? 05:13:01 10° NNE 05:16:58 32° E 05:17:39 31° ESE visible
07 Jul ? 06:49:29 10° N 06:53:07 26° WNW 06:55:00 19° WSW visible
08 Jul ? 05:32:52 10° NNE 05:37:09 52° E 05:37:56 45° SE visible
08 Jul ? 07:10:10 10° NNW 07:13:00 17° WNW 07:15:17 12° W visible
09 Jul ? 05:52:52 10° NNE 05:57:15 86° ESE 05:58:12 55° S visible
09 Jul ? 07:31:29 10° NW 07:32:50 11° WNW 07:34:11 10° WNW visible
10 Jul ? 04:38:21 10° ENE 04:40:39 14° E 04:41:07 14° E visible
10 Jul ? 06:13:00 10° N 06:17:18 59° WNW 06:18:28 42° SW visible
11 Jul ? 04:57:30 10° NE 05:00:56 22° E 05:01:24 22° ESE visible
11 Jul ? 06:33:17 10° N 06:37:18 37° WNW 06:38:45 28° WSW visible
